Regional Weather Roundup
Issued by NWS

Home | Current Version | Previous Version | Graphics & Text | Print | Product List | Glossary On
Versions: 1 2 3 4 5 6 7 8 9 10 11 12 13 14 15 16 17 18 19 20 21 22 23 24 25 26 27 28 29 30 31 32 33 34 35 36 37 38 39 40 41 42 43 44 45 46 47 48 49 50
000
ASUS43 KLOT 222306
RWRIL

ILLINOIS REGIONAL WEATHER ROUNDUP
NATIONAL WEATHER SERVICE CHICAGO/ROMEOVILLE IL
600 PM CDT TUE JUL 22 2014

NOTE: "FAIR" INDICATES FEW OR NO CLOUDS BELOW 12,000 FEET WITH NO
SIGNIFICANT WEATHER AND/OR OBSTRUCTIONS TO VISIBILITY.

* THESE STATIONS ARE NOT UNDER NWS QUALITY CONTROL. THEY ALSO MAY NOT
  REPORT WEATHER SUCH AS PRECIPITATION OR FOG.

ILZ001-002-007-009-015-016-024-230000-
NORTHWEST ILLINOIS

CITY           SKY/WX    TMP DP  RH WIND       PRES   REMARKS
MOLINE         CLOUDY    85  78  80 SW9       29.95F HX  96
STERLING*      PTSUNNY   84  77  79 W7        29.96R HX  94
SAVANNA*       CLOUDY    89  76  65 W6        29.94S HX 101
$$

ILZ003-004-008-010-011-017-018-230000-
NORTH CENTRAL ILLINOIS

CITY           SKY/WX    TMP DP  RH WIND       PRES   REMARKS
ROCKFORD       CLOUDY    87  77  72 SW8       29.95R HX  99
FREEPORT*      PTSUNNY   83  78  83 W6        29.98R HX  94
ROCHELLE*      PTSUNNY   85  76  74 SW7       29.96R HX  95
DE KALB*       MOSUNNY   85  76  75 SW13      29.96S HX  94
PERU*          MOSUNNY   87  74  66 W12G17    29.97R HX  96
$$

ILZ005-006-012>014-019>023-230000-
NORTHEAST ILLINOIS

CITY           SKY/WX    TMP DP  RH WIND       PRES   REMARKS
CHICAGO-OHARE  PTSUNNY   89  72  56 SW15G21   29.93F HX  96
CHICAGO-MIDWAY CLOUDY    88  75  65 SW16      29.95S HX  97
AURORA         MOSUNNY   88  74  63 SW10      29.95S HX  96
LANSING*       MOSUNNY   84  71  63 SW12      29.97F HX  89
JOLIET*        MOSUNNY   85  72  64 SW9       29.97F HX  91
WAUKEGAN       SUNNY     86  74  67 SW10G17   29.92F HX  94
DUPAGE AIRPORT MOSUNNY   88  75  65 SW13      29.94F HX  97
KANKAKEE*      SUNNY     85  75  70 S14       29.99F HX  94
WHEELING       PTSUNNY   90  74  59 SW10      29.94S HX  99
MORRIS*        MOSUNNY   87  75  68 SW14      29.95F HX  97
ROMEOVILLE*    CLOUDY    85  73  67 SW9       29.96S HX  92
NORTHERLY ISL    N/A     87  71  58 W17         N/A  HX  93
$$

LMZ740>746-230000-
SOUTHERN LAKE MICHIGAN

STATION/POSITION SKY/WX   TEMP    WIND        PRES    VSBY  WAVE
                          AIR SEA DIR/SP/G                  HT/PER
                          (F)     (DEG/KT/KT) (MB)    (MI)  (FT/S)
SOUTHERN BUOY              72 67  190/ 12/ 14 1013.0F         2/ 4
WAUKEGAN HARBOR            86     240/ 14/ 18 1013.9F
HARRISON CRIB              85     220/ 18/ 22   N/A
BURNHAM HARBOR             87     230/  7/ 15   N/A
CALUMET HARBOR             85     200/ 11/ 16 1013.1R
BURNS HARBOR               85     220/ 16/ 21 1014.6F
MICHIGAN CITY              84     180/ 14/ 18   N/A
$$

ILZ025>027-034>036-040-047-049-050-058-095>099-230000-
WEST-CENTRAL ILLINOIS

CITY           SKY/WX    TMP DP  RH WIND       PRES   REMARKS
QUINCY         PTSUNNY   85  77  77 SE7       29.99F HX  95
GALESBURG*     CLOUDY    80  75  84 SW8       29.98S HX  85
MACOMB*        PTSUNNY   80  76  87 S8        30.01F HX  86
JACKSONVILLE*  CLOUDY    85  77  76 CALM      30.03R HX  96
PITTSFIELD*    PTSUNNY   84  76  77 CALM      30.03R HX  94
$$

ILZ028>032-037-038-041>044-048-051>054-059>061-230000-
CENTRAL ILLINOIS

CITY           SKY/WX    TMP DP  RH WIND       PRES   REMARKS
PONTIAC        SUNNY     88  75  66 SW12      29.98F HX  97
BLOOMINGTON    MOSUNNY   83  73  71 SW10      30.03F HX  89
PEORIA         PTSUNNY   85  73  67 SW9       29.99F HX  91
LACON*         MOSUNNY   84  74  71 SW8       29.95F HX  90
LINCOLN*       PTSUNNY   86  73  65 S3        29.98F HX  93
SPRINGFIELD    CLOUDY    86  74  67 SW6       30.01S HX  94
TAYLORVILLE    MOSUNNY   82  73  74 SW3       30.03R HX  88
$$

ILZ033-039-045-046-055>057-062-063-230000-
EAST-CENTRAL ILLINOIS

CITY           SKY/WX    TMP DP  RH WIND       PRES   REMARKS
CHAMPAIGN      MOSUNNY   84  71  65 W9        30.05R HX  89
RANTOUL*       MOSUNNY   83  71  65 SW8       30.05R HX  88
MATTOON        SUNNY     84  69  60 SW6       30.02R HX  88
PARIS*         SUNNY     84  71  65 S8        30.03R HX  89
$$

ILZ079-100>102-230000-
SOUTHWEST ILLINOIS

CITY           SKY/WX    TMP DP  RH WIND       PRES   REMARKS
ALTON          PTSUNNY   86  75  70 S6        30.01S HX  95
CAHOKIA*       PTSUNNY   89  70  53 S7        30.01R HX  94
SPARTA*        PTSUNNY   82  68  61 SW5       30.03R HX  85
$$

ILZ064>066-069>071-074>076-080>082-084>086-088>090-092>094-230000-
SOUTH-CENTRAL ILLINOIS

CITY           SKY/WX    TMP DP  RH WIND       PRES   REMARKS
CARBONDALE     MOSUNNY   86  68  54 S10       30.03S HX  89
CAIRO*         SUNNY     89  72  57 SW5       30.02F HX  96
MARION         MOSUNNY   88  70  55 S12       30.03F HX  92
MT. VERNON     SUNNY     88  70  55 SW13      30.03R HX  92
CENTRALIA*     SUNNY     91  65  41 SW7       30.03S HX  93
SALEM*         SUNNY     89  68  49 SW9       30.03S HX  93
METROPOLIS*    SUNNY     89  62  40 SW7       30.02F HX  90
$$

ILZ067-068-072-073-078-083-087-091-230000-
SOUTHEAST ILLINOIS

CITY           SKY/WX    TMP DP  RH WIND       PRES   REMARKS
FLORA*         SUNNY     86  68  56 SW8       30.02S HX  89
FAIRFIELD*     SUNNY     88  73  62 S8        30.01S HX  96
HARRISBURG*    SUNNY     87  69  54 SW7       30.02F HX  91
ROBINSON*      SUNNY     88  71  57 SW7       30.02S HX  94
CARMI*         SUNNY     88  72  58 S5        30.00F HX  94
$$

ABBREVIATIONS USED IN REMARKS
   TC - TEMPERATURE IN CELSIUS
  WCI - WIND CHILL INDEX
   HX - HEAT INDEX
  VSB - VISIBILITY
$$



USA.gov is the U.S. government's official web portal to all federal, state and local government web resources and services.